Belleville, IL

12:19 AM CDT on March 27, 2017 (GMT -0500)
Scott Air Force Base-Midamerica

Weather History for KBLV - January, 2014

Change the Weather History Date:

Sunday, January 26, 2014

  Actual Average Record
Temperature  
Mean Temperature 42 °F -  
Max Temperature 60 °F 39 °F 60 °F (1952)
Min Temperature 25 °F 20 °F 0 °F (1978)
Degree Days  
Heating Degree Days 22    
Moisture  
Dew Point 21 °F    
Average Humidity 48    
Maximum Humidity 66    
Minimum Humidity 28    
Precipitation  
Precipitation 0.01 in - - ()
Sea Level Pressure  
Sea Level Pressure 29.74 in    
Wind  
Wind Speed 10 mph (NW)    
Max Wind Speed 33 mph    
Max Gust Speed 46 mph    
Visibility 10 miles    
Events      
Averages and records for this station are not official NWS values.
T = Trace of Precipitation, MM = Missing Value Source: NWS Daily Summary

Daily Weather History Graph

Daily Weather History Graph

Search for Another Location

Airport or City:

Trip Planner

Search our weather history database for the weather conditions in past years. The results will help you decide how hot, cold, wet, or windy it might be!

Date:

Astronomy

Jan. 26, 2014 Rise Set
Actual Time 7:09 AM CST 5:14 PM CST
Civil Twilight 6:41 AM CST 5:42 PM CST
Nautical Twilight 6:09 AM CST 6:15 PM CST
Astronomical Twilight 5:37 AM CST 6:46 PM CST
Moon 2:46 AM CST (1/26) 1:04 PM CST (1/26)
Length of Visible Light 11h 01m
Length of Day
10h 05m
Waning Crescent, 23% of the Moon is Illuminated
Jan 26
Waning Crescent
Jan 30
New
Feb 6
First Quarter
Feb 14
Full
Feb 22
Last Quarter

Hourly Weather History & Observations

Time (CST) Temp. Windchill Dew Point Humidity Pressure Visibility Wind Dir Wind Speed Gust Speed Precip Events Conditions
12:58 AM 25.7 °F 21.5 °F 10.9 °F 54% 29.91 in 10.0 mi Variable 3.5 mph - N/A   Overcast
1:58 AM 26.6 °F 18.2 °F 9.3 °F 48% 29.86 in 10.0 mi SSE 8.1 mph - N/A   Overcast
2:58 AM 27.7 °F 18.2 °F 6.6 °F 41% 29.76 in 10.0 mi SSE 10.4 mph - N/A   Overcast
3:58 AM 29.1 °F 20.0 °F 4.6 °F 35% 29.71 in 10.0 mi South 10.4 mph - N/A   Overcast
4:58 AM 30.9 °F 22.8 °F 0.9 °F 28% 29.68 in 10.0 mi South 9.2 mph - N/A   Mostly Cloudy
5:58 AM 31.3 °F 23.9 °F 1.0 °F 28% 29.65 in 10.0 mi SSW 8.1 mph 21.9 mph N/A   Overcast
6:58 AM 30.2 °F 23.4 °F 3.7 °F 33% 29.68 in 10.0 mi Variable 6.9 mph - N/A   Clear
7:58 AM 32.4 °F 29.1 °F 10.6 °F 40% 29.68 in 10.0 mi Variable 3.5 mph - N/A   Mostly Cloudy
8:58 AM 39.0 °F 34.8 °F 18.0 °F 43% 29.67 in 10.0 mi Variable 5.8 mph - N/A   Clear
9:58 AM 47.7 °F - 27.3 °F 45% 29.66 in 10.0 mi Variable 5.8 mph - N/A   Clear
10:58 AM 53.1 °F - 30.2 °F 42% 29.65 in 10.0 mi Variable 5.8 mph - N/A   Clear
11:58 AM 56.1 °F - 32.0 °F 40% 29.63 in 10.0 mi West 9.2 mph 18.4 mph N/A   Clear
12:58 PM 58.3 °F - 32.4 °F 38% 29.59 in 10.0 mi Variable 6.9 mph - N/A   Clear
1:58 PM 60.3 °F - 31.5 °F 34% 29.58 in 10.0 mi West 8.1 mph 18.4 mph N/A   Clear
2:58 PM 60.1 °F - 31.1 °F 33% 29.58 in 10.0 mi WNW 12.7 mph - N/A   Partly Cloudy
3:58 PM 58.1 °F - 31.5 °F 36% 29.60 in 10.0 mi WNW 8.1 mph - N/A   Partly Cloudy
4:58 PM 55.4 °F - 30.6 °F 39% 29.61 in 10.0 mi Variable 3.5 mph - N/A   Mostly Cloudy
5:58 PM 48.9 °F - 31.6 °F 51% 29.65 in 10.0 mi NNW 5.8 mph - N/A   Overcast
6:58 PM 44.2 °F - 30.2 °F 58% 29.66 in 10.0 mi WNW 2.3 mph - N/A   Overcast
7:58 PM 41.2 °F - 30.7 °F 66% 29.67 in 10.0 mi Variable 2.3 mph - N/A   Mostly Cloudy
8:58 PM 47.3 °F - 30.2 °F 52% 29.71 in 10.0 mi Variable 4.6 mph - N/A   Clear
9:43 PM 48.2 °F - 28.4 °F 46% 29.76 in 10.0 mi NNW 29.9 mph 39.1 mph N/A   Overcast
9:51 PM 41.0 °F 29.5 °F 26.6 °F 57% 29.79 in 10.0 mi NNW 32.2 mph 46.0 mph N/A   Overcast
9:58 PM 40.5 °F 28.6 °F 26.4 °F 57% 29.83 in 10.0 mi NNW 33.4 mph 46.0 mph 0.01 in   Overcast
10:19 PM 35.6 °F 23.4 °F 23.0 °F 60% 29.84 in 10.0 mi NNW 25.3 mph 38.0 mph N/A   Overcast
10:40 PM 32.0 °F 19.2 °F 21.2 °F 64% 29.86 in 10.0 mi NNW 23.0 mph 34.5 mph N/A   Overcast
10:50 PM 32.0 °F 18.1 °F 21.2 °F 64% 29.88 in 10.0 mi NNW 27.6 mph 36.8 mph N/A   Mostly Cloudy
10:58 PM 32.7 °F 19.6 °F 21.0 °F 62% 29.91 in 10.0 mi NNW 25.3 mph 41.4 mph 0.00 in   Scattered Clouds
11:30 PM 28.4 °F 14.4 °F 17.6 °F 64% 29.95 in 10.0 mi NNW 23.0 mph 34.5 mph N/A   Mostly Cloudy
11:39 PM 28.4 °F 15.1 °F 15.8 °F 59% 29.96 in 10.0 mi NNW 20.7 mph 34.5 mph N/A   Mostly Cloudy
11:58 PM 26.4 °F 13.2 °F 12.6 °F 56% 30.00 in 10.0 mi North 18.4 mph 36.8 mph 0.00 in   Mostly Cloudy